www.pogodaiklimat.ru

Погода и климат >> Архив погоды >> Алжир >> Иллизи


ПОГОДА в Иллизи

  • Прогноз погоды в Иллизи
  • Монитор погоды в Иллизи

АРХИВ ПОГОДЫ в Иллизи

Время (UTC), дата Ветер
(напр.,м/с)
 
Видим.   Явления Облачность Т
(С)
Тd
(С)
f
(%)
Тe
(С)
Тes
(С)
Комфортность P
(гПа)
Po
(гПа)
Тmin
(С)
Tmax
(С)
R
(мм)
R24
(мм)
S
(см)
15 12.01 С 4 10 км ясно +12.0 -5.2 30 +10 +12 1023.6 1024.0
18 12.01 С 3 10 км ясно +9.2 -4.3 38 +7 +7 1025.7 1026.0 +12.8
21 12.01 С 1 10 км ясно +7.3 -4.6 43 +7 +7 1027.0 1027.0
00 13.01 СВ 1 10 км ясно +5.5 -5.3 46 +5 +5 1026.5 1027.0
03 13.01 ЮВ 2 10 км ясно +4.0 -5.2 51 +2 +2 1026.1 1026.0
06 13.01 штиль 0 10 км ясно +0.6 -7.3 55 0 0 1027.5 1028.0 +0.6
09 13.01 СЗ 5 10 км ясно +8.0 -4.3 41 +5 +8 1027.5 1028.0
12 13.01 ЮВ 3 10 км ясно +13.5 -2.0 34 +13 +22 1024.9 1025.0
15 13.01 СВ 3 10 км ясно +13.8 -3.4 30 +13 +15 1023.4 1023.0
18 13.01 СВ 4 10 км ясно +10.6 -5.5 32 +9 +9 1024.5 1025.0 +14.6
21 13.01 СВ 4 10 км ясно +7.1 -5.8 39 +4 +4 1025.4 1025.0
00 14.01 СВ 2 10 км ясно +5.7 -4.8 47 +4 +4 1024.2 1024.0
03 14.01 С 4 10 км ясно +3.7 -5.2 52 -0 -0 1023.8 1024.0
06 14.01 СЗ 3 10 км ясно +0.6 -7.3 55 -3 -3 1024.4 1024.0 +0.6
09 14.01 штиль 0 10 км ясно +6.0 -5.5 43 +6 +14 1025.3 1025.0
12 14.01 штиль 0 10 км ясно +13.6 -2.6 32 +14 +27 опасность
простуды
1022.3 1022.0
15 14.01 С 2 10 км ясно +14.7 -5.1 25 +15 +18 1021.0 1021.0
18 14.01 С 2 10 км ясно +10.6 -4.7 34 +10 +10 1022.5 1023.0 +15.0
21 14.01 штиль 0 10 км ясно +5.4 -6.5 42 +5 +5 1023.2 1023.0
00 15.01 штиль 0 10 км ясно +3.1 -6.6 49 +3 +3 1021.9 1022.0
03 15.01 штиль 0 10 км ясно +1.0 -5.1 64 0 0 1020.4 1020.0
06 15.01 штиль 0 10 км ясно -1.0 -7.8 60 -2 -2 1021.6 1022.0 -1.0
09 15.01 В 2 10 км ясно +9.4 -5.6 34 +8 +14 1022.8 1023.0
12 15.01 СВ 4 10 км ясно +15.7 -5.0 24 +15 +22 1020.6 1021.0
15 15.01 В 4 10 км ясно +19.0 -3.4 22 +19 +21 1019.2 1019.0
18 15.01 В 5 10 км ясно +13.6 -3.8 30 +12 +12 1020.8 1021.0 +19.4
21 15.01 В 5 10 км ясно +10.5 -4.0 36 +8 +8 1020.4 1020.0
00 16.01 СВ 2 10 км ясно +7.1 -3.7 46 +6 +6 1019.5 1020.0
03 16.01 В 4 10 км ясно +4.4 -3.5 56 +1 +1 1018.3 1018.0
06 16.01 ЮВ 5 10 км ясно +3.0 -6.3 50 -2 -2 1019.3 1019.0 +2.6
09 16.01 ЮВ 4 10 км ясно +15.1 -4.9 25 +14 +18 1018.7 1019.0
12 16.01 Ю 2 10 км 3/0
[Ci sp]
+22.4 -6.4 14 +21 +30 комфорт 1016.6 1017.0
15 16.01 З 2 10 км 4/0
[Ci sp]
+24.5 +7.1 33 +25 +27 комфорт 1014.4 1014.0
18 16.01 С 3 10 км 1/0
[Ci sp]
+17.5 -8.1 17 +18 +18 1016.0 1016.0 +24.6
21 16.01 В 3 10 км 1/0
[Ci sp]
+11.0 -5.4 31 +10 +10 1016.6 1017.0
00 17.01 Ю 3 10 км 1/0
[Ci sp]
+7.3 -4.2 44 +5 +5 1015.4 1015.0
03 17.01 З 1 10 км 1/0
[Ci sp]
+5.2 -3.6 53 +5 +5 1015.1 1015.0
06 17.01 ЮЗ 3 10 км 1/0
[Ci sp]
+3.3 -6.8 47 0 0 1016.8 1017.0 +3.3
09 17.01 ЮЗ 2 10 км 1/0
[Ci sp]
+14.7 -6.8 22 +15 +21 1018.1 1018.0
12 17.01 СЗ 4 10 км ясно +19.4 -8.0 15 +19 +27 1016.7 1017.0
15 17.01 СЗ 4 10 км ясно +20.7 -7.7 14 +20 +22 1015.4 1015.0
18 17.01 С 4 10 км ясно +16.8 -8.0 18 +17 +17 1017.2 1017.0 +21.0
21 17.01 СВ 1 10 км ясно +10.8 -6.3 30 +11 +11 1017.5 1018.0
00 18.01 ЮВ 1 10 км ясно +8.0 -6.4 35 +8 +8 1017.1 1017.0
03 18.01 З 1 10 км ясно +5.6 -5.7 44 +5 +5 1016.1 1016.0
06 18.01 В 1 10 км 3/0
[Ci sp]
+3.0 -6.3 50 +2 +2 1016.7 1017.0 +2.8
09 18.01 10 км 5/0
[Ac trans Ci sp]
+10.4 -6.1 31 1018.2 1018.0
12 18.01 10 км 1/0
[Ci sp]
+18.5 -4.5 21 1014.9 1015.0
15 18.01 С 3 10 км 1/0
[Ci sp]
+22.5 -6.2 14 +21 +23 комфорт 1012.3 1012.0
18 18.01 С 3 10 км 3/0
[Ci sp]
+17.1 -7.5 18 +17 +17 1013.5 1014.0 +23.4
21 18.01 С 2 10 км 3/0
[Ci sp]
+10.9 -6.5 29 +11 +11 1013.9 1014.0
00 19.01 Ю 4 10 км 8/0
[Ci sp]
+9.4 -7.2 30 +7 +7 1012.9 1013.0
03 19.01 Ю 2 10 км 9/0
[Ac trans Ci sp]
+11.9 -6.4 27 +12 +12 1011.3 1011.0
06 19.01 ЮЗ 9 6000 м пыльный позёмок 10/3 1380 м
[Sc Ac trans Ci sp]
+18.5 +1.6 32 +18 +18 1010.9 1011.0 +9.2
09 19.01 СЗ 5 10 км {дождь} 10/4 1380 м
[Sc Ac trans]
+13.2 -8.3 22 +12 +12 1014.0 1014.0
12 19.01 С 3 10 км {дождь} 8/3 1380 м
[Sc Ac trans]
+15.5 -5.0 24 +15 +19 1012.8 1013.0 0.0

 

Местоположение метеостанции Иллизи (Алжир): широта 26.50 долгота 8.42 высота над уровнем моря 544 м.

В архиве по умолчанию представлена погода в Иллизи за последнюю неделю. Архивные данные за месяц целиком и за предыдущие месяцы, начиная с января 2011 года, Вы можете получить, выбрав интересующий диапазон дат из раскрывающегося списка и нажав кнопку "Ввод!".


*Определитесь, кто Вы:
робот инопланетянин человек

Внимание! Время в таблицах - всемирное. Для получения местного времени необходимо прибавить поправку, которая равна 1 ч.

Смотрите также архив погоды в соседних городах и на ближайших метеорологических станциях:

Погода в Fadnoune (Алжир) (79 км)
Погода в Bordj Haous (Алжир) (186 км)
Погода в Ин-Аменасе (Алжир) (210 км)
Погода в Tin Fouye (Алжир) (231 км)
Погода в Djanet (Алжир) (270 км)
Погода в Tinalkoum (Алжир) (278 км)
Погода в Mertouek (Алжир) (383 км)
Погода в Роуд-Ноусс (Алжир) (396 км)
Погода в Гадамесе (Ливия) (417 км)
Погода в Moulay Lachen (Алжир) (425 км)

Пояснения к столбцам:

Ветер - указаны скорость ветра в м/с - средняя за 10 мин, порывы в срок и между сроками (в фигурных скобках) и направление, откуда дует ветер: С - северный, СВ - северо-восточный, В - восточный, ЮВ - юго-восточный, Ю - южный, ЮЗ - юго-западный, З - западный, СЗ - северо-западный.
Видимость - горизонтальная дальность видимости в метрах или километрах. При видимости от 1 до 10 км при отсутствии осадков обычно наблюдается дымка, при ухудшении видимости до 1 км и менее - туман. В сухую погоду видимость может ухудшаться дымом, пылью или мглою.
Явления - указаны атмосферные явления, наблюдавшиеся в срок или в последний час перед сроком; фигурными скобками обозначены явления, наблюдавшиеся между сроками (за 1-3 часа до срока); квадратными скобками обозначены град или гололедные отложения с указанием их диаметра в мм.
Облачность - указаны через наклонную черту общая и нижняя облачность в баллах и высота нижней границы облаков в метрах; квадратными скобками обозначены формы облаков: Ci - перистые, Cs - перисто-слоистые, Cc - перисто-кучевые, Ac - высококучевые, As - высокослоистые, Sc - слоисто-кучевые, Ns - слоисто-дождевые, Cu - кучевые, Cb - кучево-дождевые. Подробнее классификацию облаков см. в Атласе облаков (PDF).
T - Температура воздуха - температура, измеренная на высоте 2 м над землей.
Td - Температура точки росы - температура, при понижении до которой содержащийся в воздухе водяной пар достигнет насыщения.
f - Относительная влажность воздуха - влажноcть воздуха, измеренная на высоте 2 м над землей.
Te - Эффективная температура - температура, которую ощущает одетый по сезону человек в тени. Характеристика душности погоды. При расчете учитывается влияние влажности воздуха и скорости ветра на теплоощущения человека.
Tes - Эффективная температура на солнце - температура, которую ощущает человек, с поправкой на солнечный нагрев. Характеристика знойности погоды. Зависит от высоты солнца над горизонтом, облачности и скорости ветра. Ночью, в пасмурную погоду, а также при ветре 12 м/с и более поправка равна нулю.
P - Атмосферное давление - приведенное к уровню моря атмосферное давление.
Po - Атмосферное давление - измеренное на уровне метеостанции атмосферное давление.
Tmin - Минимальная температура - минимум температуры воздуха на высоте 2 м над землей.
Tmax - Максимальная температура - максимум температуры воздуха на высоте 2 м над землей.
R - Количество осадков - Количество выпавших осадков за период времени, мм. При наведении курсора мыши на число - период времени, за который выпало указанное количество осадков.
R24 - Количество осадков - Количество выпавших осадков за 24 часа, мм.
S - Снежный покров - Высота снежного покрова, см. При наведении курсора мыши на число - состояние снежного покрова и степень покрытия местности в баллах.